| time (UTC) | temp C | wind direction | speed KPH | gust KPH | rain 1hr cm | rain 24hr cm | rain mn cm | humidity % | barometer mb |
| 20260507044503 | 8 | 0 | 0.0 | 0.0 | 0.00 | 0.89 | 0.00 | 99 | 1013.0 |
| 20260507043603 | 8 | 0 | 0.0 | 0.0 | 0.00 | 0.89 | 0.00 | 99 | 1013.0 |
| 20260507042703 | 8 | 0 | 0.0 | 0.0 | 0.00 | 0.89 | 0.00 | 99 | 1013.1 |
| 20260507041803 | 8 | 0 | 0.0 | 0.0 | 0.00 | 0.89 | 0.00 | 99 | 1013.0 |
| 20260507040903 | 8 | 0 | 0.0 | 0.0 | 0.00 | 0.89 | 0.00 | 99 | 1013.0 |
| 20260507040003 | 8 | 0 | 0.0 | 0.0 | 0.00 | 0.89 | 0.00 | 99 | 1013.0 |
| 20260507035403 | 8 | 0 | 0.0 | 0.0 | 0.00 | 0.89 | 0.00 | 99 | 1013.0 |
| 20260507034503 | 8 | 0 | 0.0 | 0.0 | 0.00 | 0.89 | 0.00 | 99 | 1013.1 |
| 20260507033603 | 8 | 0 | 0.0 | 0.0 | 0.00 | 0.89 | 0.00 | 99 | 1012.9 |
| 20260507032703 | 8 | 0 | 0.0 | 0.0 | 0.00 | 0.89 | 0.00 | 99 | 1012.9 |
| 20260507031803 | 8 | 0 | 0.0 | 0.0 | 0.00 | 0.94 | 0.00 | 99 | 1013.0 |
| 20260507030903 | 8 | 0 | 0.0 | 0.0 | 0.00 | 0.94 | 0.00 | 99 | 1012.8 |
| 20260507030003 | 8 | 0 | 0.0 | 0.0 | 0.00 | 0.94 | 0.00 | 99 | 1012.9 |
| 20260507025403 | 8 | 0 | 0.0 | 0.0 | 0.00 | 0.94 | 0.00 | 99 | 1013.0 |
| 20260507024503 | 8 | 0 | 0.0 | 0.0 | 0.00 | 0.94 | 0.00 | 99 | 1013.0 |
| 20260507023603 | 8 | 0 | 0.0 | 0.0 | 0.00 | 0.94 | 0.00 | 99 | 1012.7 |
| 20260507022703 | 8 | 0 | 0.0 | 0.0 | 0.00 | 0.94 | 0.00 | 99 | 1012.8 |
| 20260507021803 | 8 | 0 | 0.0 | 0.0 | 0.00 | 0.94 | 0.00 | 99 | 1012.7 |
| 20260507020903 | 8 | 0 | 0.0 | 0.0 | 0.00 | 0.94 | 0.00 | 99 | 1012.8 |
| 20260507020003 | 9 | 0 | 0.0 | 0.0 | 0.00 | 0.94 | 0.00 | 99 | 1012.7 |
| 20260507015403 | 9 | 0 | 0.0 | 0.0 | 0.00 | 0.94 | 0.00 | 99 | 1012.7 |
| 20260507014503 | 9 | 0 | 0.0 | 0.0 | 0.00 | 0.94 | 0.00 | 99 | 1012.6 |
| 20260507013603 | 9 | 0 | 0.0 | 0.0 | 0.00 | 0.94 | 0.00 | 99 | 1012.6 |
| 20260507012703 | 9 | 0 | 0.0 | 0.0 | 0.00 | 0.94 | 0.00 | 99 | 1012.7 |
| 20260507011803 | 9 | 0 | 0.0 | 0.0 | 0.00 | 0.94 | 0.00 | 99 | 1012.6 |
| 20260507010903 | 9 | 0 | 0.0 | 0.0 | 0.00 | 0.94 | 0.00 | 99 | 1012.6 |
| 20260507010003 | 9 | 0 | 0.0 | 0.0 | 0.00 | 0.94 | 0.00 | 99 | 1012.7 |
| 20260507005403 | 9 | 0 | 0.0 | 0.0 | 0.00 | 0.94 | 0.00 | 99 | 1012.7 |
| 20260507004503 | 9 | 0 | 0.0 | 0.0 | 0.00 | 0.94 | 0.00 | 99 | 1012.6 |
| 20260507003603 | 9 | 0 | 0.0 | 0.0 | 0.00 | 0.94 | 0.00 | 99 | 1012.8 |
| 20260507002703 | 9 | 0 | 0.0 | 0.0 | 0.00 | 0.94 | 0.00 | 99 | 1012.7 |
| 20260507001803 | 9 | 0 | 0.0 | 0.0 | 0.00 | 0.94 | 0.00 | 99 | 1012.5 |
| 20260507000903 | 9 | 0 | 0.0 | 0.0 | 0.00 | 0.94 | 0.00 | 99 | 1012.5 |
| 20260507000004 | 9 | 0 | 0.0 | 0.0 | 0.00 | 0.94 | 0.00 | 99 | 1012.5 |
| 20260506235403 | 9 | 0 | 0.0 | 0.0 | 0.00 | 0.94 | 0.00 | 99 | 1012.6 |
| 20260506234503 | 9 | 0 | 0.0 | 0.0 | 0.00 | 0.94 | 0.00 | 99 | 1012.5 |
| 20260506233603 | 9 | 0 | 0.0 | 0.0 | 0.00 | 0.94 | 0.00 | 99 | 1012.5 |
| 20260506232703 | 9 | 0 | 0.0 | 0.0 | 0.00 | 0.94 | 0.00 | 99 | 1012.6 |
| 20260506231803 | 9 | 0 | 0.0 | 0.0 | 0.00 | 0.94 | 0.00 | 99 | 1012.6 |
| 20260506230903 | 9 | 0 | 0.0 | 0.0 | 0.00 | 0.94 | 0.00 | 99 | 1012.5 |
| 20260506230003 | 10 | 0 | 0.0 | 0.0 | 0.00 | 0.94 | 0.00 | 99 | 1012.5 |
| 20260506225403 | 10 | 0 | 0.0 | 0.0 | 0.00 | 0.94 | 0.94 | 99 | 1012.4 |
| 20260506224503 | 10 | 0 | 0.0 | 0.0 | 0.00 | 0.94 | 0.94 | 99 | 1012.4 |
| 20260506223603 | 10 | 0 | 0.0 | 0.0 | 0.00 | 0.94 | 0.94 | 99 | 1012.4 |
| 20260506222703 | 10 | 0 | 0.0 | 0.0 | 0.00 | 0.94 | 0.94 | 99 | 1012.3 |
| 20260506221803 | 10 | 0 | 0.0 | 0.0 | 0.00 | 0.94 | 0.94 | 99 | 1012.1 |
| 20260506220903 | 10 | 0 | 0.0 | 0.0 | 0.00 | 0.94 | 0.94 | 99 | 1012.1 |
| 20260506220003 | 10 | 0 | 0.0 | 0.0 | 0.00 | 0.94 | 0.94 | 99 | 1012.0 |
| 20260506215403 | 10 | 0 | 0.0 | 0.0 | 0.00 | 0.94 | 0.94 | 99 | 1012.0 |
| 20260506214503 | 10 | 0 | 0.0 | 0.0 | 0.00 | 0.94 | 0.94 | 99 | 1012.0 |
| 20260506213603 | 10 | 0 | 0.0 | 0.0 | 0.00 | 0.94 | 0.94 | 99 | 1012.1 |
| 20260506212703 | 10 | 0 | 0.0 | 0.0 | 0.00 | 0.94 | 0.94 | 99 | 1012.0 |
| 20260506211803 | 10 | 0 | 0.0 | 0.0 | 0.00 | 0.94 | 0.94 | 99 | 1012.1 |
| 20260506210903 | 10 | 0 | 0.0 | 0.0 | 0.00 | 0.94 | 0.94 | 99 | 1012.0 |
| 20260506210004 | 10 | 0 | 0.0 | 0.0 | 0.00 | 0.94 | 0.94 | 99 | 1012.0 |
| 20260506205403 | 10 | 0 | 0.0 | 0.0 | 0.00 | 0.94 | 0.94 | 99 | 1011.9 |
| 20260506204503 | 10 | 0 | 0.0 | 0.0 | 0.00 | 0.94 | 0.94 | 99 | 1012.0 |
| 20260506203603 | 10 | 0 | 0.0 | 0.0 | 0.00 | 0.94 | 0.94 | 99 | 1011.9 |
| 20260506202703 | 10 | 0 | 0.0 | 0.0 | 0.00 | 0.94 | 0.94 | 99 | 1011.8 |
| 20260506201803 | 10 | 0 | 0.0 | 0.0 | 0.00 | 0.94 | 0.94 | 99 | 1011.7 |
| 20260506200903 | 10 | 0 | 0.0 | 0.0 | 0.00 | 0.94 | 0.94 | 99 | 1011.5 |
| 20260506200003 | 10 | 0 | 0.0 | 0.0 | 0.00 | 0.94 | 0.94 | 99 | 1011.4 |
| 20260506195403 | 10 | 0 | 0.0 | 0.0 | 0.00 | 0.94 | 0.94 | 99 | 1011.3 |
| 20260506194503 | 10 | 0 | 0.0 | 0.0 | 0.00 | 0.94 | 0.94 | 99 | 1011.3 |
| 20260506193603 | 10 | 0 | 0.0 | 0.0 | 0.00 | 0.94 | 0.94 | 98 | 1011.2 |
| 20260506192703 | 11 | 0 | 0.0 | 0.0 | 0.00 | 0.94 | 0.94 | 98 | 1011.2 |
| 20260506191803 | 11 | 0 | 0.0 | 0.0 | 0.00 | 0.94 | 0.94 | 97 | 1011.0 |
| 20260506190903 | 11 | 0 | 0.0 | 0.0 | 0.00 | 0.94 | 0.94 | 97 | 1010.9 |
| 20260506190003 | 11 | 0 | 0.0 | 0.0 | 0.00 | 0.94 | 0.94 | 96 | 1010.9 |
| 20260506185403 | 11 | 0 | 0.0 | 0.0 | 0.00 | 0.94 | 0.94 | 95 | 1011.0 |
| 20260506184503 | 11 | 0 | 0.0 | 0.0 | 0.00 | 0.94 | 0.94 | 95 | 1010.6 |
| 20260506183603 | 11 | 0 | 0.0 | 0.0 | 0.00 | 0.94 | 0.94 | 95 | 1010.6 |
| 20260506182703 | 11 | 0 | 0.0 | 0.0 | 0.00 | 0.94 | 0.94 | 94 | 1010.5 |
| 20260506181803 | 12 | 0 | 0.0 | 0.0 | 0.00 | 0.94 | 0.94 | 93 | 1010.3 |
| 20260506180903 | 12 | 0 | 0.0 | 0.0 | 0.00 | 0.94 | 0.94 | 94 | 1010.4 |
| 20260506180004 | 12 | 0 | 0.0 | 0.0 | 0.00 | 0.94 | 0.94 | 94 | 1010.2 |
| 20260506175403 | 12 | 0 | 0.0 | 0.0 | 0.00 | 0.94 | 0.94 | 91 | 1010.1 |
| 20260506174503 | 13 | 0 | 0.0 | 0.0 | 0.00 | 0.94 | 0.94 | 94 | 1010.1 |
| 20260506173603 | 12 | 0 | 0.0 | 0.0 | 0.00 | 0.94 | 0.94 | 95 | 1010.0 |
| 20260506172703 | 12 | 0 | 0.0 | 0.0 | 0.00 | 0.94 | 0.94 | 97 | 1010.0 |
| 20260506171803 | 12 | 0 | 0.0 | 0.0 | 0.00 | 0.94 | 0.94 | 98 | 1009.9 |
| 20260506170903 | 12 | 202 | 0.0 | 3.2 | 0.00 | 0.94 | 0.94 | 98 | 1009.9 |
| 20260506170003 | 11 | 0 | 0.0 | 0.0 | 0.00 | 0.94 | 0.94 | 98 | 1009.8 |
| 20260506165403 | 12 | 0 | 0.0 | 0.0 | 0.00 | 0.94 | 0.94 | 98 | 1009.7 |
| 20260506164503 | 11 | 0 | 0.0 | 0.0 | 0.00 | 0.94 | 0.94 | 98 | 1009.6 |
| 20260506163603 | 11 | 0 | 0.0 | 0.0 | 0.00 | 0.94 | 0.94 | 99 | 1009.8 |
| 20260506162703 | 11 | 0 | 0.0 | 0.0 | 0.00 | 0.94 | 0.94 | 99 | 1009.6 |
| 20260506161803 | 11 | 0 | 0.0 | 0.0 | 0.00 | 0.94 | 0.94 | 99 | 1009.6 |
| 20260506160903 | 11 | 0 | 0.0 | 0.0 | 0.03 | 0.94 | 0.94 | 99 | 1009.6 |
| 20260506160003 | 11 | 0 | 0.0 | 0.0 | 0.03 | 0.94 | 0.94 | 99 | 1009.6 |
| 20260506155403 | 11 | 0 | 0.0 | 0.0 | 0.33 | 0.94 | 0.94 | 99 | 1009.6 |
| 20260506154503 | 11 | 0 | 0.0 | 0.0 | 0.71 | 0.94 | 0.94 | 99 | 1009.7 |
| 20260506153603 | 10 | 0 | 0.0 | 0.0 | 0.79 | 0.94 | 0.94 | 99 | 1009.9 |
| 20260506152703 | 10 | 0 | 0.0 | 0.0 | 0.79 | 0.94 | 0.94 | 99 | 1009.5 |
| 20260506151803 | 10 | 90 | 0.0 | 3.2 | 0.79 | 0.94 | 0.94 | 99 | 1009.7 |
| 20260506150903 | 10 | 352 | 0.0 | 3.2 | 0.76 | 0.89 | 0.89 | 98 | 1009.5 |
| 20260506150003 | 10 | 324 | 0.0 | 9.7 | 0.76 | 0.89 | 0.89 | 97 | 1009.5 |
| 20260506145403 | 11 | 297 | 3.2 | 11.3 | 0.46 | 0.61 | 0.61 | 95 | 1009.7 |
| 20260506144503 | 11 | 324 | 4.8 | 14.5 | 0.05 | 0.20 | 0.20 | 92 | 1009.6 |
| 20260506143603 | 12 | 299 | 3.2 | 11.3 | 0.00 | 0.15 | 0.15 | 85 | 1009.1 |
| 20260506142703 | 13 | 315 | 6.4 | 14.5 | 0.00 | 0.15 | 0.15 | 82 | 1009.1 |
| 20260506141803 | 15 | 202 | 8.0 | 17.7 | 0.00 | 0.15 | 0.15 | 76 | 1009.0 |
| 20260506140903 | 15 | 192 | 4.8 | 17.7 | 0.00 | 0.15 | 0.15 | 74 | 1008.7 |
| 20260506140003 | 16 | 201 | 4.8 | 17.7 | 0.00 | 0.15 | 0.15 | 72 | 1008.8 |
| 20260506135403 | 16 | 206 | 4.8 | 17.7 | 0.00 | 0.15 | 0.15 | 74 | 1008.8 |
| 20260506134503 | 16 | 201 | 11.3 | 17.7 | 0.00 | 0.15 | 0.15 | 73 | 1008.8 |
| 20260506133603 | 16 | 211 | 9.7 | 20.9 | 0.00 | 0.15 | 0.15 | 76 | 1008.8 |
| 20260506132703 | 15 | 209 | 9.7 | 14.5 | 0.00 | 0.15 | 0.15 | 80 | 1009.0 |
| 20260506131803 | 15 | 212 | 4.8 | 12.9 | 0.00 | 0.15 | 0.15 | 81 | 1009.1 |
| 20260506130903 | 14 | 198 | 8.0 | 14.5 | 0.00 | 0.15 | 0.15 | 82 | 1009.0 |
| 20260506130004 | 13 | 208 | 8.0 | 17.7 | 0.00 | 0.15 | 0.15 | 82 | 1009.1 |
| 20260506125403 | 14 | 198 | 11.3 | 17.7 | 0.00 | 0.15 | 0.15 | 81 | 1009.0 |
| 20260506124503 | 14 | 214 | 8.0 | 17.7 | 0.00 | 0.15 | 0.15 | 83 | 1009.0 |
| 20260506123603 | 14 | 203 | 8.0 | 17.7 | 0.00 | 0.15 | 0.15 | 82 | 1009.0 |
| 20260506122703 | 15 | 207 | 8.0 | 17.7 | 0.00 | 0.15 | 0.15 | 81 | 1009.0 |
| 20260506121803 | 15 | 197 | 6.4 | 12.9 | 0.00 | 0.15 | 0.15 | 84 | 1009.0 |
| 20260506120903 | 14 | 203 | 6.4 | 17.7 | 0.00 | 0.15 | 0.15 | 82 | 1009.1 |
| 20260506120003 | 15 | 206 | 9.7 | 17.7 | 0.00 | 0.15 | 0.15 | 83 | 1009.1 |
| 20260506115403 | 14 | 199 | 11.3 | 20.9 | 0.00 | 0.15 | 0.15 | 83 | 1009.0 |
| 20260506114503 | 14 | 204 | 12.9 | 17.7 | 0.00 | 0.15 | 0.15 | 83 | 1009.1 |
| 20260506113603 | 14 | 205 | 6.4 | 17.7 | 0.00 | 0.15 | 0.15 | 84 | 1009.2 |
| 20260506112703 | 14 | 201 | 4.8 | 17.7 | 0.00 | 0.15 | 0.15 | 83 | 1009.3 |
| 20260506111803 | 13 | 204 | 8.0 | 17.7 | 0.00 | 0.15 | 0.15 | 83 | 1009.3 |
| 20260506110903 | 13 | 201 | 8.0 | 14.5 | 0.00 | 0.15 | 0.15 | 86 | 1009.3 |
| 20260506110003 | 13 | 186 | 6.4 | 17.7 | 0.00 | 0.15 | 0.15 | 87 | 1009.4 |
| 20260506105403 | 13 | 193 | 6.4 | 17.7 | 0.00 | 0.15 | 0.15 | 87 | 1009.4 |
| 20260506104503 | 13 | 200 | 6.4 | 17.7 | 0.00 | 0.15 | 0.15 | 87 | 1009.3 |
| 20260506103603 | 13 | 202 | 8.0 | 17.7 | 0.00 | 0.15 | 0.15 | 89 | 1009.4 |
| 20260506102703 | 13 | 190 | 12.9 | 17.7 | 0.00 | 0.18 | 0.15 | 89 | 1009.4 |
| 20260506101803 | 12 | 199 | 8.0 | 14.5 | 0.00 | 0.18 | 0.15 | 91 | 1009.3 |
| 20260506100903 | 12 | 196 | 6.4 | 11.3 | 0.00 | 0.18 | 0.15 | 90 | 1009.3 |
| 20260506100003 | 12 | 197 | 3.2 | 14.5 | 0.00 | 0.18 | 0.15 | 89 | 1009.3 |
| 20260506095403 | 12 | 189 | 8.0 | 14.5 | 0.00 | 0.18 | 0.15 | 90 | 1009.3 |
| 20260506094503 | 12 | 203 | 3.2 | 11.3 | 0.00 | 0.18 | 0.15 | 92 | 1009.3 |
| 20260506093603 | 12 | 212 | 3.2 | 14.5 | 0.00 | 0.18 | 0.15 | 92 | 1009.1 |
| 20260506092703 | 12 | 177 | 4.8 | 14.5 | 0.00 | 0.18 | 0.15 | 93 | 1009.1 |
| 20260506091803 | 12 | 190 | 1.6 | 11.3 | 0.00 | 0.18 | 0.15 | 93 | 1009.0 |
| 20260506090903 | 12 | 198 | 6.4 | 11.3 | 0.00 | 0.18 | 0.15 | 94 | 1008.9 |
| 20260506090003 | 11 | 205 | 0.0 | 6.4 | 0.00 | 0.18 | 0.15 | 94 | 1008.9 |
| 20260506085403 | 11 | 202 | 3.2 | 9.7 | 0.00 | 0.18 | 0.15 | 95 | 1008.9 |
| 20260506084503 | 11 | 203 | 1.6 | 9.7 | 0.00 | 0.18 | 0.15 | 96 | 1008.7 |
| 20260506083603 | 11 | 187 | 0.0 | 9.7 | 0.00 | 0.18 | 0.15 | 96 | 1008.7 |
| 20260506082703 | 11 | 210 | 1.6 | 6.4 | 0.00 | 0.18 | 0.15 | 96 | 1008.7 |
| 20260506081803 | 11 | 187 | 0.0 | 6.4 | 0.00 | 0.18 | 0.15 | 97 | 1008.6 |
| 20260506080903 | 10 | 217 | 0.0 | 6.4 | 0.00 | 0.18 | 0.15 | 98 | 1008.5 |
| 20260506072703 | 10 | 170 | 1.6 | 6.4 | 0.00 | 0.18 | 0.15 | 99 | 1008.3 |
| 20260506071803 | 10 | 199 | 0.0 | 6.4 | 0.00 | 0.18 | 0.15 | 99 | 1008.3 |
| 20260506070903 | 10 | 180 | 0.0 | 3.2 | 0.00 | 0.18 | 0.15 | 99 | 1008.1 |
| 20260506061803 | 10 | 0 | 0.0 | 0.0 | 0.05 | 0.18 | 0.15 | 99 | 1007.9 |
| 20260506060903 | 10 | 0 | 0.0 | 0.0 | 0.10 | 0.18 | 0.15 | 99 | 1007.8 |
| 20260506050903 | 10 | 337 | 0.0 | 3.2 | 0.03 | 0.13 | 0.05 | 99 | 1007.6 |